Regional Weather Roundup
Issued by NWS Upton, NY

Current Version | Previous Version | Graphics & Text | Print | Product List | Glossary Off
Versions: 1 2 3 4 5 6 7 8 9 10 11 12 13 14 15 16 17 18 19 20 21 22 23 24 25 26 27 28 29 30 31 32 33 34 35 36 37 38 39 40 41 42 43 44 45 46 47 48 49 50

000
ASUS41 KOKX 201305
RWROKX
REGIONAL WEATHER ROUNDUP
NATIONAL WEATHER SERVICE NEW YORK NY
900 AM EDT MON OCT 20 2014

NOTE: "FAIR" INDICATES FEW OR NO CLOUDS BELOW 12,000 FEET WITH NO
SIGNIFICANT WEATHER AND/OR OBSTRUCTIONS TO VISIBILITY.

NYZ071-072-176-178-NJZ106-104-201400-
NEW YORK CITY METRO AREA


CITY           SKY/WX    TMP DP  RH WIND       PRES   REMARKS
CENTRAL PARK   PTSUNNY   47  29  49 VRB6      30.15R
LAGUARDIA APRT PTSUNNY   48  30  49 SW9       30.12R
KENNEDY INTL   PTSUNNY   49  32  52 W10       30.14R
NEWARK/LIBERTY PTSUNNY   44  31  60 SW7       30.13R
BRNX BOT. GARD   N/A     46  32  57 W8        30.13F
TETERBORO      PTSUNNY   45  31  58 SW6       30.12R
$$

NYZ177-179-078>081-201400-
LONG ISLAND NEW YORK

CITY           SKY/WX    TMP DP  RH WIND       PRES   REMARKS
FARMINGDALE    MOSUNNY   46  33  60 W7        30.13R
ISLIP          PTSUNNY   44  33  65 W7        30.11R
SHIRLEY        MOSUNNY   43  34  70 W5        30.12R
WESTHAMPTON    MOSUNNY   39  34  82 CALM      30.14R
MONTAUK POINT    N/A     49  35  58 W7        30.12R
$$

NYZ052-065-067-201400-
HUDSON VALLEY

CITY           SKY/WX    TMP DP  RH WIND       PRES   REMARKS
WHITE PLAINS   MOSUNNY   42  32  67 CALM      30.10R
NEWBURGH       PTSUNNY   39  32  75 W7        30.10R WCI  34
MONTGOMERY     SUNNY     39  31  72 SW5       30.09R
POUGHKEEPSIE   SUNNY     43  31  62 S6        30.10R
ALBANY         PTSUNNY   39  32  76 SE6       30.05F WCI  35
$$

NJZ001-105-106-008-010-013-015-019>022-104-201400-
NEW JERSEY

CITY           SKY/WX    TMP DP  RH WIND       PRES   REMARKS
NEWARK/LIBERTY PTSUNNY   44  31  60 SW7       30.13R
TETERBORO      PTSUNNY   45  31  58 SW6       30.12R
CALDWELL       PTSUNNY   41  29  62 CALM      30.13R
MORRISTOWN     PTSUNNY   41  34  75 CALM      30.10F
SOMERVILLE     MOSUNNY   36  33  89 MISG      30.12R
SUSSEX         MOSUNNY   38  33  82 CALM      30.10R
ANDOVER          N/A     38  32  79 SW7       30.11R WCI  33
TRENTON        MOSUNNY   41  34  76 SW5       30.13R
MILLVILLE      SUNNY     44  39  82 CALM      30.15R
ATLANTIC CITY  SUNNY     45  39  79 CALM      30.14R
WRIGHTSTOWN    MOSUNNY   43  33  68 S3        30.12R
TOMS RIVER     SUNNY     39  32  75 CALM      30.15S
BELMAR         SUNNY     43  27  52 CALM      30.13S
$$

PAZ047>061-062-071-201400-
EASTERN PENNSYLVANIA

CITY           SKY/WX    TMP DP  RH WIND       PRES   REMARKS
PHILADELPHIA   PTSUNNY   45  32  60 SW3       30.15R
ALLENTOWN      PTSUNNY   38  33  82 CALM      30.12R
SCRANTON       PTSUNNY   38  30  73 CALM      30.07R
$$

CTZ002-004>006-009-010-012-RIZ004-006-007-MAZ004-011-015-201400-
SOUTHERN NEW ENGLAND
 IN CT

CITY           SKY/WX    TMP DP  RH WIND       PRES   REMARKS
BRADLEY INTL   MOSUNNY   42  30  62 SW8       30.07R
HARTFORD       MOSUNNY   42  31  64 SW9       30.10R
DANBURY        MOSUNNY   41  30  65 W5        30.11R
WTRBRY/OXFORD  SUNNY     37  28  70 CALM      30.10R
BRIDGEPORT     MOSUNNY   45  34  65 W5        30.11R
MERIDEN        SUNNY     39  32  76 CALM      30.11R
NEW HAVEN      MOSUNNY   48  35  60 W3        30.11R
CHESTER        FAIR      43  32  65 W6        30.10R
GROTON         SUNNY     43  31  62 W7        30.11R
WILLIMANTIC    SUNNY     38  31  76 CALM      30.10R

 IN RI

CITY           SKY/WX    TMP DP  RH WIND       PRES   REMARKS
PROVIDENCE     MOSUNNY   41  29  62 SW6       30.10R
BLOCK ISLAND   MOSUNNY   48  32  53 NW9       30.10R
WESTERLY       SUNNY     42  30  62 W3        30.11R

 IN MA

CITY           SKY/WX    TMP DP  RH WIND       PRES   REMARKS
BOSTON         MOSUNNY   42  27  55 SW10      30.07R
WORCESTER      MOSUNNY   37  28  70 W9G17     30.04R WCI  30
WESTFIELD      MOSUNNY   39  33  79 S6        30.06S WCI  35
PROVINCETOWN   SUNNY     45  27  49 W13G18    30.07R
NANTUCKET      SUNNY     47  28  47 W10       30.08R
$$

ANZ330-335-338-340-345-350-353-355-201400-
COASTAL MARINE OBSERVATIONS


STATION/POSITION TIME  SKY/WX   TEMP    WIND        PRES    VSBY  WAVE
                                AIR SEA DIR/SP/G                  HT/PER
                 (UTC)          (F)     (DEG/KT/KT) (MB)    (MI)  (FT/S)
NY HARB ENTRANCE NOT AVBL
4S FIRE IS       1300               63                N/A           2/11
20S FIRE ISLAND  1300            51 63  290/  8/ 12 1020.5          2/11
23SW MTP         1300                                 N/A           2/11
HUDSON CANYON    1300            53 65  310/ 12/ 16 1020.2          4/11
EXECUTION ROCKS  1300            48 64  240/ 12/ 16   N/A
WESTERN LI SOUND 1300            47     260/ 10/ 14   N/A           1/ 2
CENTRAL LI SOUND 1200            49 64  260/  8/ 14   N/A           1/ 3
EASTERN LI SOUND 1200            53 63  290/ 12/ 16   N/A
ROBBINS REEF     1300            44     260/ 12/ 14 1019.0
$$


>>>>>>>>>>>>>>>>>>>>>>>>>>>> KEY <<<<<<<<<<<<<<<<<<<<<<<<<<<
>                                                          <
>     SKY/WX - SKY CONDITION/PRESENT WEATHER               <
>     TMP    - TEMPERATURE IN FAHRENHEIT                   <
>     DP     - DEWPOINT IN FAHRENHEIT                      <
>     RH     - RELATIVE HUMIDITY IN PERCENT                <
>     WIND   - DIRECTION AND SPEED IN MPH                  <
>     PRES   - MEAN SEA LEVEL PRESSURE IN INCHES OF HG     <
>     WCI    - WIND CHILL INDEX                            <
>     VSB    - VISIBILITY IN MILES                         <
>     HX     - HEAT INDEX                                  <
>     TC     - TEMPERATURE IN CELSIUS                      <
>     VRB    - VARIABLE WIND DIRECTION                     <
>                                                          <
>>>>>>>>>>>>>>>>>>>>>>>>>>>> KEY <<<<<<<<<<<<<<<<<<<<<<<<<<<




USA.gov is the U.S. government's official web portal to all federal, state and local government web resources and services.